Zurück zum Katalog

STARLINK-4339

AktivKommunikationSSO
NORAD 53054·PAYLOAD·🇺🇸 United States

Gestartet Jul 11, 2022 von Vandenberg Space Force Base

Loading…

Nächste Überflüge (nächste 24 Stunden)

TLE

AktuellSource: CelesTrak SupGP

Epoche: Sep 14, 2026, 20:46 UTC

1 53054C 22077M   26257.86576389  .00083587  00000+0  25903-2 0  2577
2 53054  97.2856  73.6430 0001230  99.1742 238.0522 15.33452135    12

Verfolge STARLINK-4339 in Echtzeit mit AllMySat

Download on the App Store